SPACEBEE-105 (48896 NORAD) Tracking and Keplerian Element Data

This shows tracking and keplerian element data for the satellite.

Feedback or suggestion? Click here.




ElementValue
Catalog48896
NameSPACEBEE-105
Epoch Orbit1866
Epoch Day300.31543696
Epoch Year2021
RAAN67.2671
Inclination97.5283
Eccentricity0.0009507
Argument of Perigee173.7282
Mean Anonmoly186.4069
Mean Motion15.12287385
Decay Rate4.702E-05
L11 48896U 21059T 21300.31543696 .00004702 00000-0 27515-3 0 9991
L22 48896 97.5283 67.2671 0009507 173.7282 186.4069 15.12287385 18668

Live tracking and technical data element details for SPACEBEE-105 (NORAD 48896). SPACEBEE-105 can be tracked NOW for your location showing map with azimuth and elevation plus other details from your city location.

Track the satellite on the map from your city or location and see movement details for azimuth, elevation, latitude, longitude, range, height, and movement on the map or in text.







IsCatalogInMostPopularTable: catalog: 48896, numindb: 24
Update: records affected: 1



GetName: 48896 SPACEBEE-105

Hit Count: updated at: Thu, 28 Oct 2021 10:55:23 GMT